Simultaneous Nadir Overpasses (SNOs) Predictions

Prediction of SNOs between LANDSAT-8 and NOAA-19 Satellite Orbit:

Table of predicted SNOs for the next 14.0 days since TLE Epoch: 10/1/2016
Index Date (LANDSAT-8) Time (LANDSAT-8) Lat,Lon (LANDSAT-8) SZA (LANDSAT-8 ) Date (NOAA-19) Time (NOAA-19) Lat,Lon (NOAA-19) SZA (NOAA-19 ) Distance(km) Time Diff (sec)
1 10/02/2016 19:18:40 75.18,-103.65 79.24 10/02/2016 19:17:44 75.18,-103.65 79.23 0.13 56
2 10/02/2016 20:08:09 -75.11, 63.79 100.83 10/02/2016 20:08:44 -75.09, 63.86 100.83 2.37 35
3 10/05/2016 00:52:26 -75.19, -7.07 99.89 10/05/2016 00:51:44 -75.18, -7.10 99.90 0.86 42
4 10/05/2016 01:41:53 75.11, 160.37 80.04 10/05/2016 01:42:43 75.11, 160.38 80.05 0.48 50
5 10/07/2016 06:26:10 75.18, 89.49 80.97 10/07/2016 06:25:43 75.17, 89.48 80.96 1.04 27
6 10/07/2016 07:15:39 -75.11,-103.06 99.09 10/07/2016 07:16:42 -75.09,-103.02 99.10 2.92 63
7 10/09/2016 11:59:56 -75.18,-173.95 98.18 10/09/2016 11:59:42 -75.19,-174.00 98.18 1.59 14
8 10/09/2016 12:49:27 74.90, -7.05 81.53 10/09/2016 12:50:37 74.88, -5.81 81.57 35.91 70
9 10/11/2016 17:33:40 75.17, -77.43 82.66 10/11/2016 17:33:42 75.18, -77.44 82.68 2.08 2
10 10/13/2016 22:17:56 75.27,-148.21 83.60 10/13/2016 22:16:43 75.31,-148.53 83.61 10.05 73
11 10/13/2016 23:07:26 -75.16, 19.12 96.51 10/13/2016 23:07:39 -75.17, 19.18 96.50 1.55 13




NCC Satellite Simultaneous Nadir Overpasses (SNOs) Prediction Service
